ONEWEB-0689, 61597

Orbit data source: Space-Track

ONEWEB-0689, 61597 is a payload satellite owned by Eut. One Web (UK) in LEO that was launched on Sun, 20 Oct 2024 UTC via an FALCON 9 launch vehicle from the Air Force Western Test Range (AFWTR). Payload-class satellites include a variety of spacecraft equipped with specific instruments for various scientific and technological missions. These include communications satellites like Starlink; space stations such as the ISS; scientific satellites like the Hubble; Earth observation satellites from companies like Planet Labs, Umbra, and HawkEye 360; GPS; miniature CubeSats for education and research; and military/defense satellites.

Loading next visibility...
Identifier
61597, 2024-188D
Orbit
LEO
Last TLE update
4 hours ago
Origin
Manufacturer
One Web
Mission
Operational Commercial Communications
Bus & Motor
ARROW, Unknown motor
Mass
148 kg wet, ~140 kg dry
Launch date (UTC)
2024-10-20 (8 months ago)
Launch vehicle
FALCON 9
Launch site
Air Force Western Test Range (AFWTR)
Object type
Payload
Rocket body
Debris
Shape & HBR
Trap Box + 2 Pan, 5 m
Radar Cross Section
2.032 m², Large (>1 m²)

Expand to show TLE details & history

TLE from 4 hours ago
0 ONEWEB-0689
1 61597U 24188D   25182.22562582 -.00000285  00000-0 -83964-3 0  9991
2 61597  87.8801  91.0374 0001952  66.7461 293.3872 13.11415984 36586
Epoch: 2025-07-01T05:24Z
TLE epoch observation values (Epoch: 2025-07-01T05:24:54.07Z)
Latitude
-0.00007°
Longitude
90.28798°
Altitude
1,219.987 km
Speed
7.245 km/s
True Right ascension
06h 04m 08s
True Declination
0° 00' 00"
Sunlit
Object was in daylight at epoch
Visualization orbit readout
Latitude
22.08697°
Longitude
-90.60548°
Altitude
1,220.419 km
Speed
7.246 km/s
Apparent Right ascension
15h 05m 40s
Apparent Declination
-12° 18' 12"
Sunlit
Object is in full shadow
Visualization observer readout
Local Sidereal Time
21:31:08
Azimuth
264.474° W
Elevation
-12.697°
Doppler factor
1
Orbital elements
Apogee altitude
1,216.287 km
Perigee altitude
1,213.323 km
Semi-major axis
7,592.942 km
Eccentricity
0.0002
Inclination
87.8801°
RAAN
91.0374°
Arg. of periapsis
66.7461°
True anomaly
Unknown
Mean anomaly
293.3872°
Eccentric anomaly
Unknown
Mean motion
3.28041 °/min
Orbital period
109.74 mins
BSTAR
-0.00083964
Loading maneuver chart data...
Loading SW <> Apogee altitude chart data...
Loading historical data...
Loading historical data...
Loading historical data...
Loading historical data...
Loading historical data...
Loading historical data...
Loading historical data...

ONEWEB-0689 Visibility forecast

Observer location: undefined°, undefined°

Span
Click to sort rows by Start time (UTC) header in descending order
Start Az.
Max El. time (UTC)
Max El. Az.
Max El.
End time (UTC)
End Az.
5 mins2025-07-01 16:34:46.814Z92.785° ESE2025-07-01 16:37:46.814Z67.265° ENE13.253°2025-07-01 16:39:46.814Z50.304° ENE
12 mins2025-07-01 18:20:46.814Z174.885° S2025-07-01 18:25:46.814Z139.404° SSE44.626°2025-07-01 18:32:46.814Z2.199° NNE
7 mins2025-07-01 20:13:46.814Z259.21° W2025-07-01 20:16:46.814Z286.026° WNW15.787°2025-07-01 20:20:46.814Z320.904° NNW
13 mins2025-07-02 05:49:46.814Z6.335° NNE2025-07-02 05:55:46.814Z83.711° E42.912°2025-07-02 06:02:46.814Z169.985° S
8 mins2025-07-02 07:41:46.814Z317.316° NNW2025-07-02 07:44:46.814Z287.886° WNW19.78°2025-07-02 07:49:46.814Z242.565° WSW
|